Location: Mount Tamalpais State Park
(37.9108°N, 122.6128°W)
Time: 10:41:25
(UTC-07:00)

Cosmos 1814 Rocket - Visible Passes

Search period start: 19 April 2015 00:00
Search period end: 29 April 2015 00:00
Orbit: 746 x 787 km, 74.1° (Epoch: 19 April)

Date Brightness Start Highest point End Pass type
(mag) Time Alt. Az. Time Alt. Az. Time Alt. Az.
19 Apr 5.9 04:21:41 10° N 04:26:07 29° ENE 04:30:36 10° SE visible
20 Apr 6.7 03:45:03 10° NNE 03:48:22 18° ENE 03:51:51 10° E visible
20 Apr 4.1 05:25:50 10° NNW 05:30:49 52° WSW 05:35:46 10° S visible
21 Apr 7.2 03:10:17 10° NE 03:10:27 10° NE 03:10:58 10° ENE visible
21 Apr 3.9 04:48:16 10° NNW 04:53:26 86° ENE 04:58:34 10° SSE visible
22 Apr 4.9 04:11:00 10° N 04:15:57 48° ENE 04:20:54 10° SE visible
22 Apr 5.3 05:54:15 10° NW 05:57:37 17° W 06:00:47 10° SW visible
23 Apr 5.9 03:33:58 10° N 03:38:19 28° ENE 03:42:44 10° ESE visible
23 Apr 4.7 05:15:52 10° NW 05:20:22 31° W 05:24:47 10° SSW visible
24 Apr 6.6 02:57:25 10° NNE 03:00:33 17° ENE 03:03:53 10° E visible
24 Apr 4.0 04:38:02 10° NNW 04:43:03 56° WSW 04:47:43 12° S visible
25 Apr 3.9 04:00:31 10° NNW 04:05:40 81° ENE 04:08:20 29° SSE visible
26 Apr 4.9 03:23:15 10° N 03:28:09 45° ENE 03:29:55 33° ESE visible
26 Apr 5.3 05:06:18 10° NW 05:09:52 18° W 05:10:04 18° W visible
27 Apr 5.8 02:46:17 10° N 02:50:31 26° ENE 02:51:58 23° E visible
27 Apr 4.7 04:28:01 10° NW 04:32:07 32° W 04:32:07 32° W visible
28 Apr 6.4 02:09:48 10° NNE 02:12:44 16° ENE 02:14:15 14° ENE visible
28 Apr 4.2 03:50:14 10° NNW 03:54:26 52° WNW 03:54:26 52° WNW visible
